STARLINK-33591 (62777 NORAD) Tracking and Keplerian Element Data

This shows tracking and keplerian element data for the satellite.

Feedback or suggestion? Click here.




ElementValue
Catalog62777
NameSTARLINK-33591
Epoch Orbit337
Epoch Day35.16668981
Epoch Year2025
RAAN19.0481
Inclination53.16
Eccentricity0.000132
Argument of Perigee81.5394
Mean Anonmoly103.0006
Mean Motion15.78334281
Decay Rate-0.01149799
L11 62777U 25015V 25035.16668981 -.01149799 00000+0 -73235-2 0 9995
L22 62777 53.1600 19.0481 0001320 81.5394 103.0006 15.78334281 3370



Live tracking and technical data element details for STARLINK-33591 (NORAD 62777). STARLINK-33591 can be tracked NOW for your location showing map with azimuth and elevation plus other details from your city location.







IsCatalogInMostPopularTable: catalog: 62777, numindb: 186
Update: records affected: 1



GetName: 62777 STARLINK-33591

Hit Count: updated at: Mon, 17 Nov 2025 18:48:58 GMT